Location: ?????
(55.6500°N, 37.2500°E)
Time: 02:53:28
(UTC+00:00)

Cosmos 2228 Rocket - Pass Details

Date: 19 May 2025
Orbit: 612 x 647 km, 82.5° (Epoch: 15 June)

Event Time Altitude Azimuth Distance (km) Brightness Sun altitude
Exits shadow 23:42:31 - 177° (S) 2,318 5.5 -9.1°
Reaches altitude 10° 23:43:11 10° 176° (S) 2,048 5.2 -9.1°
Maximum altitude 23:47:40 61° 97° (E) 739 3.6 -8.7°
Drops below altitude 10° 23:52:11 10° 18° (NNE) 2,057 7.2 -8.4°
Sets 23:54:27 0° 15° (NNE) 2,968 8.1 -8.2°
